sat.trackr.live / text

‹ back to catalog

STARLINK-5706

NORAD 55488 · 2023-015AR

PAYLOAD ACTIVE UNKNOWN

§ Identity

Operator
Country
US
Launch date
2023-02-02
Launch site
AFETR
Launch vehicle
Mass (kg)
RCS (m²)

Purposes: comms

External: N2YO · Heavens-Above · Gunter

§ Orbital elements

Epoch: 2026-09-20T20:34:29.793792Z

Period
94.27 min
Inclination
43.0039°
Eccentricity
0.0001107
Mean motion
15.27576688 rev/d
Perigee alt
482.3 km
Apogee alt
483.8 km
Semi-major
6,861.2 km
B*
-5.6980e-6
RAAN
317.5220°
Arg perigee
289.8198°
Mean anomaly
70.2534°
Rev number
20,044

§ Raw data

STARLINK-57061 55488U 23015AR  26263.85728928 -.00000419  00000+0 -56980-5 0  99972 55488  43.0039 317.5220 0001107 289.8198  70.2534 15.27576688200441

JSON: /api/v1/satellites/55488 · /tle

For live sub-satellite position, see the globe view (requires WebGL).

§ Visibility from observer

Set your observer location to see the next 7 days of passes ≥ 10°. The values pass through the URL so the page stays shareable.

No JS? Fill the form by hand. The geolocation button needs JavaScript.